WetterOnline ( http://www.wetteronline.de )

Wetter aktuell Freudenstadt (in 700m)

Aktuelles Wetter: Freudenstadt (801m)

6-stündlich | Neueste Meldungen
Ortszeit Temperatur Wetter
Mo, 24.09. 14:00 9.5° C leicht bewölkt
Mo, 24.09. 8:00 4.3° C fast wolkenlos
Mo, 24.09. 2:00 6.6° C Sprühregen
So, 23.09. 20:00 12.1° C Regen
So, 23.09. 14:00 16.2° C bedeckt
So, 23.09. 8:00 13.4° C bedeckt
So, 23.09. 2:00 9.4° C bedeckt
Sa, 22.09. 20:00 10.6° C bedeckt
Ortszeit Temperatur Wetter
Mo, 24.09. 19:30 7.6° C leicht bewölkt
Mo, 24.09. 19:20 7.6° C leicht bewölkt
Mo, 24.09. 19:10 7.9° C leicht bewölkt
Mo, 24.09. 19:00 9.0° C wolkig
Mo, 24.09. 18:50 9.0° C bewölkt
Mo, 24.09. 18:40 9.1° C wolkig
Mo, 24.09. 18:30 9.5° C leicht bewölkt
Mo, 24.09. 18:00 9.9° C wolkig
Mo, 24.09. 17:30 10.3° C bedeckt
Mo, 24.09. 17:00 10.6° C leicht bewölkt
Mo, 24.09. 16:30 10.3° C leicht bewölkt
Ortszeit Relative Feuchte Sichtweite
Mo, 24.09. 14:00 55% 60 km
Mo, 24.09. 8:00 98% 21 km
Mo, 24.09. 2:00 96% 2.9 km
So, 23.09. 20:00 96% 3.3 km
So, 23.09. 14:00 91% 70 km
So, 23.09. 8:00 91% 70 km
So, 23.09. 2:00 82% 70 km
Sa, 22.09. 20:00 77% 70 km
Ortszeit Relative Feuchte Sichtweite
Mo, 24.09. 19:30 64% 70 km
Mo, 24.09. 19:20 64% -
Mo, 24.09. 19:10 62% -
Mo, 24.09. 19:00 55% 70 km
Mo, 24.09. 18:50 55% -
Mo, 24.09. 18:40 54% -
Mo, 24.09. 18:30 53% 65 km
Mo, 24.09. 18:00 52% 60 km
Mo, 24.09. 17:30 49% 50 km
Mo, 24.09. 17:00 49% 55 km
Mo, 24.09. 16:30 47% 45 km
Ortszeit Niederschlagsmenge Niederschlagsart
Mo, 24.09. 14:00 0.0 l/m2 in 6 Std. -
Mo, 24.09. 8:00 12 l/m2 in 12 Std. Regen
Mo, 24.09. 2:00 10 l/m2 in 6 Std. Regen
So, 23.09. 20:00 15 l/m2 in 12 Std. Regenschauer
So, 23.09. 14:00 1 l/m2 in 6 Std. Regen
So, 23.09. 8:00 3 l/m2 in 12 Std. Regen
So, 23.09. 2:00 0.5 l/m2 in 6 Std. Regen
Sa, 22.09. 20:00 0.1 l/m2 in 12 Std. Regen
Ortszeit Niederschlagsmenge Niederschlagsart
Mo, 24.09. 19:30 0.0 l/m2 in 1 Std. -
Mo, 24.09. 19:20 keine Meldung -
Mo, 24.09. 19:10 keine Meldung -
Mo, 24.09. 19:00 0.0 l/m2 in 1 Std. -
Mo, 24.09. 18:50 keine Meldung -
Mo, 24.09. 18:40 keine Meldung -
Mo, 24.09. 18:30 0.0 l/m2 in 1 Std. -
Mo, 24.09. 18:00 0.0 l/m2 in 1 Std. -
Mo, 24.09. 17:30 0.0 l/m2 in 1 Std. -
Mo, 24.09. 17:00 0.0 l/m2 in 1 Std. -
Mo, 24.09. 16:30 0.0 l/m2 in 1 Std. -
Ortszeit Stärke Spitze Richtung
km/h Bft. km/h Grad Sektor
Mo, 24.09. 14:00 11 2 29 330° NW
Mo, 24.09. 8:00 9 2 37 310° NW
Mo, 24.09. 2:00 17 3 93 290° W
So, 23.09. 20:00 56 7 100 290° W
So, 23.09. 14:00 18 3 50 250° W
So, 23.09. 8:00 18 3 43 250° W
So, 23.09. 2:00 11 2 43 210° SW
Sa, 22.09. 20:00 7 2 36 270° W
Ortszeit Stärke Spitze Richtung
km/h Bft. km/h Grad Sektor
Mo, 24.09. 19:30 0 0 11 - -
Mo, 24.09. 19:20 0 0 - 90° O
Mo, 24.09. 19:10 4 1 - 360° N
Mo, 24.09. 19:00 9 2 19 20° N
Mo, 24.09. 18:50 9 2 - 20° N
Mo, 24.09. 18:40 7 2 - 40° NO
Mo, 24.09. 18:30 9 2 19 30° NO
Mo, 24.09. 18:00 15 3 26 360° N
Mo, 24.09. 17:30 11 2 25 360° N
Mo, 24.09. 17:00 14 3 25 340° N
Mo, 24.09. 16:30 14 3 25 340° N
Ortszeit Untergrenze Bedeckung Gattung
total tief tief mittel hoch
Mo, 24.09. 14:00 1080 m 2/8 2/8 - - -
Mo, 24.09. 8:00 630 m 1/8 1/8 - - -
Mo, 24.09. 2:00 240 m 8/8 8/8 - - -
So, 23.09. 20:00 300 m 8/8 8/8 - - -
So, 23.09. 14:00 330 m 8/8 8/8 - - -
So, 23.09. 8:00 420 m 8/8 8/8 - - -
So, 23.09. 2:00 810 m 8/8 8/8 - - -
Sa, 22.09. 20:00 1500 m 8/8 8/8 - - -
Ortszeit Bedeckungsgrad in Achtel und Wolkenuntergrenze
Mo, 24.09. 19:30 1(1320m) 4(1500m)
Mo, 24.09. 19:20 1(1320m) 4(1500m)
Mo, 24.09. 19:10 2(1260m) 3(1500m)
Mo, 24.09. 19:00 4(1260m) 7(1500m)
Mo, 24.09. 18:50 4(1260m) 7(1500m)
Mo, 24.09. 18:40 2(1320m) 6(1500m)
Mo, 24.09. 18:30 3(1500m)
Mo, 24.09. 18:00 6(1350m) 7(1500m)
Mo, 24.09. 17:30 6(1320m) 8(1500m)
Mo, 24.09. 17:00 3(1380m) 5(1500m)
Mo, 24.09. 16:30 4(1440m)
Ortszeit Stationsdruck (hPa) Tendenz (hPa in 3 Std.)
Mo, 24.09. 14:00 939 + 0,1
Mo, 24.09. 8:00 937 + 3,0
Mo, 24.09. 2:00 931 + 4,5
So, 23.09. 20:00 920 + 0,1
So, 23.09. 14:00 923 - 1,7
So, 23.09. 8:00 924 - 0,9
So, 23.09. 2:00 927 - 1,2
Sa, 22.09. 20:00 929 - 0,8
Ortszeit Stationsdruck (hPa) Tendenz (hPa in 3 Std.)
Mo, 24.09. 19:30 940 + 0,8
Mo, 24.09. 19:20 940 keine Meldung
Mo, 24.09. 19:10 939 keine Meldung
Mo, 24.09. 19:00 939 + 0,5
Mo, 24.09. 18:50 939 keine Meldung
Mo, 24.09. 18:40 939 keine Meldung
Mo, 24.09. 18:30 939 + 0,2
Mo, 24.09. 18:00 939 - 0,1
Mo, 24.09. 17:30 939 0,0
Mo, 24.09. 17:00 939 - 0,1
Mo, 24.09. 16:30 939 - 0,4
Ortszeit Schneehöhe (cm)
Mo, 24.09. 14:00 -
Mo, 24.09. 8:00 -
Mo, 24.09. 2:00 -
So, 23.09. 20:00 -
So, 23.09. 14:00 -
So, 23.09. 8:00 -
So, 23.09. 2:00 -
Sa, 22.09. 20:00 -
Ortszeit Schneehöhe (cm)
Mo, 24.09. 19:30 -
Mo, 24.09. 19:20 -
Mo, 24.09. 19:10 -
Mo, 24.09. 19:00 -
Mo, 24.09. 18:50 -
Mo, 24.09. 18:40 -
Mo, 24.09. 18:30 -
Mo, 24.09. 18:00 -
Mo, 24.09. 17:30 -
Mo, 24.09. 17:00 -
Mo, 24.09. 16:30 -
Link zu dieser Seite / Seite empfehlen

Das Wetter in ...